Regional Weather Roundup
Issued by NWS

Home | Current Version | Previous Version | Graphics & Text | Print | Product List | Glossary On
Versions: 1 2 3 4 5 6 7 8 9 10 11 12 13 14 15 16 17 18 19 20 21 22 23 24 25 26 27 28
000
ASUS45 KTFX 240710
RWRMT
MONTANA REGIONAL WEATHER ROUNDUP
NATIONAL WEATHER SERVICE GREAT FALLS MT
100 AM MDT MON APR 24 2017

NOTE: "FAIR" INDICATES FEW OR NO CLOUDS BELOW 12000 FEET WITH NO
SIGNIFICANT WEATHER AND/OR OBSTRUCTIONS TO VISIBILITY.

MTZ001>007-043-240800-
WEST OF THE DIVIDE

CITY           SKY/WX    TMP DP  RH WIND       PRES   REMARKS
KALISPELL      CLOUDY    41  39  93 CALM      29.73S
MISSOULA       CLOUDY    43  37  79 VRB3      29.77S
BUTTE          CLOUDY    40  34  79 CALM      29.74S
MULLAN PASS    CLOUDY    32  30  92 VRB3      29.73F
ANACONDA         N/A     41  34  75 CALM      29.74F
DEER LODGE       N/A     41  36  81 NW12G21   29.77S
EUREKA           N/A     41  37  87 CALM      29.73S
HAMILTON         N/A     43  36  75 S6        29.77F
LIBBY            N/A     41  41 100 CALM      29.72F
PLAINS           N/A     43  36  76 CALM      29.78
$$

MTZ008-052>055-240800-
SOUTHWEST MONTANA

CITY           SKY/WX    TMP DP  RH WIND       PRES   REMARKS
BOZEMAN        LGT RAIN  43  41  93 W9        29.75S
DILLON         CLOUDY    38  33  82 SW9       29.74F WCI  31
W YELLOWSTONE  CLOUDY    32  32 100 CALM      29.80F FOG
ENNIS          MOCLDY    39  34  81 S10G17    29.80S
THREE FORKS      N/A     43  43 100 SW7       29.75F
TWIN BRIDGES     N/A     42  33  70 SE6       29.77
$$

MTZ009-010-012-014-046-048-049-054-240800-
EAST SLOPES AND CENTRAL MONTANA

CITY           SKY/WX    TMP DP  RH WIND       PRES   REMARKS
CUT BANK       CLOUDY    40  35  83 NW7       29.68S
GREAT FALLS    CLOUDY    41  36  82 SE8       29.70S
MALMSTROM AFB  CLOUDY    40  38  94 S7        29.70S
HELENA         PTCLDY    44  33  65 W6        29.71S
AUGUSTA        MOCLDY    41  31  68 W6        29.69F
BOWMANS CRNR   MOCLDY    41  30  65 W5        29.68F
CHOTEAU          N/A     43  41  93 S5        29.70F
FAIRFIELD      MOCLDY    41  37  84 SE5       29.68F
POWER          MOCLDY    38  37  97 CALM      29.69S
RAYNESFORD     MOCLDY    40  37  88 S5        29.70F
ULM            MOCLDY    42  38  84 SE7       29.69F
$$

MTZ011-013-016-021-045-047-050-051-240800-
NORTH CENTRAL MONTANA

CITY           SKY/WX    TMP DP  RH WIND       PRES   REMARKS
HAVRE          CLOUDY    39  38  96 E10       29.69S
LEWISTOWN      CLOUDY    41  39  93 CALM      29.69F
N BAR RANCH      N/A     37  36  93 W5        29.72S
CHINOOK          N/A     37  36  93 E6        29.71S
DENTON         LGT RAIN  41  39  93 W28G35    29.67R
FORT BENTON      N/A    N/A N/A N/A MISG      29.69S
GEYSER         MOCLDY    38  35  91 S6        29.70F
GRASS RANGE      N/A     39  38  97 SW6       29.66S
JUDITH GAP     MOCLDY    37  36  93 NW9       29.69F WCI  31
STANFORD       MOCLDY    38  37  98 N7        29.71R
WINIFRED       MOCLDY    42  42 100 W7        29.69R
$$

MTZ017>020-022>027-061-062-240800-
NORTHEAST MONTANA

CITY           SKY/WX    TMP DP  RH WIND       PRES   REMARKS
GLASGOW        MIX PCPN  32  31  96 E14       29.73S FOG     WCI  22
JORDAN           N/A     40  37  89 NE5       29.69R
SIDNEY         MIX PCPN  32  30  92 E10       29.76F WCI  24
WOLF POINT     FRZ RAIN  33  31  92 E15       29.76S FOG     WCI  23
MALTA          CLOUDY    36  34  93 E8        29.73S WCI  29
PLENTYWOOD       N/A     28  28 100 E13       29.80F WCI  18
POPLAR           N/A     30  28  93 E15       29.77F WCI  19
SCOBEY           N/A     28  22  78 E12       29.76F WCI  18
$$

MTZ028>42-056>058-240800-
SOUTHCENTRAL AND SOUTHEAST MONTANA

CITY           SKY/WX    TMP DP  RH WIND       PRES   REMARKS
BAKER          CLOUDY    34  33  96 E16       29.69F WCI  24
BILLINGS       CLEAR     45  40  82 SW7       29.68F
LIVINGSTON     CLOUDY    43  38  82 W13       29.72S
MILES CITY     CLOUDY    41  38  89 CALM      29.64R
BIG TIMBER     PTCLDY    41  36  81 SW14      29.73S
EKALAKA          N/A     36  32  85 E10       29.66S WCI  28
LAUREL           N/A     42  31  65 CALM      29.71R
ROUNDUP          N/A     43  38  82 N2        29.64S
$$

REGIONAL REPORTS...DAKOTAS

CITY           SKY/WX    TMP DP  RH WIND       PRES   REMARKS
WILLISTON      CLOUDY    31  28  89 E14       29.81F WCI  21
MINOT          CLOUDY    31  26  82 E17       29.82F WCI  19
DICKINSON      FOG       29  28  96 E8        29.75R VSB 1/2 WCI  21
BEACH          DRZL/FOG  30  30 100 E15       29.75F VSB 3/4 WCI  19
TIOGA          CLOUDY    27  27 100 SE20      29.83R WCI  13
WATFORD CITY   CLOUDY    28  28 100 SE13      29.80F FOG     WCI  18
BISMARCK       CLOUDY    33  31  92 E16       29.74F WCI  23
GRAND FORKS    CLOUDY    34  31  88 NE16      29.89F WCI  24
FARGO          CLOUDY    39  33  79 E15       29.78F WCI  31
BUFFALO SD       N/A     36  35  96 NE16      29.57F WCI  26
RAPID CITY     CLOUDY    42  39  89 N5        29.60R
$$

REGIONAL REPORTS...WYOMING/IDAHO/WASHINGTON

CITY           SKY/WX    TMP DP  RH WIND       PRES   REMARKS
GILLETTE       CLOUDY    48  44  86 NW16      29.64R
SHERIDAN       CLOUDY    47  42  83 NW8       29.69F
BUFFALO WY     CLOUDY    46  37  71 NW16G29   29.68R
CODY           CLOUDY    40  36  86 CALM      29.74S
YELLOWSTONE LA   N/A     24  23  96 CALM      29.82F
IDAHO FALLS    CLOUDY    48  35  60 S12       29.77S
SALMON         CLOUDY    43  37  81 E3        29.75F
BOISE          MOCLDY    52  42  69 SE6       29.75S
SPOKANE        CLOUDY    47  36  65 S14       29.74S
$$

REGIONAL REPORTS...ALBERTA

CITY           SKY/WX    TMP DP  RH WIND       PRES   REMARKS
EDMONTON       CLOUDY    32  30  93 E6        29.76S WCI  26
CALGARY        LGT RAIN  36  34  93 NE9       29.69F FOG     WCI  29
LETHBRIDGE     CLOUDY    43  41  93 N5        29.67S
MEDICINE HAT   CLOUDY    43  39  87 W7        29.64S
WATERTON GATE    N/A     39  23  52 SW9         N/A
MILK RIVER       N/A     39  39 100 W6          N/A
$$

REGIONAL REPORTS...SASKATCHEWAN

CITY           SKY/WX    TMP DP  RH WIND       PRES   REMARKS
SWIFT CURRENT  CLOUDY    30  30 100 SE9       29.72R WCI  22
REGINA         LGT SNOW  28  27  93 E9        29.85F VSB 3/4 WCI  20
SASKATOON      CLOUDY    32  30  93 SE14      29.87S WCI  22
CYPRESS HILLS    N/A     34  34 100 SW9         N/A  WCI  26
VAL MARIE        N/A     34  34 100 SE7         N/A  WCI  28
ROCKGLEN         N/A     27  27 100 SE10        N/A  WCI  17
ASSINIBOIA       N/A     34  34 100 E8          N/A  WCI  27
$$




USA.gov is the U.S. government's official web portal to all federal, state and local government web resources and services.